Back to catalog

STARLINK-35072

AliveCommunicationsVLEO
NORAD 65505·PAYLOAD·🇺🇸 United States

Launched Sep 5, 2025 from Cape Canaveral Space Force Station

Loading…

Next Passes (next 24 hours)

TLE

FreshSource: CelesTrak SupGP

Epoch: Sep 14, 2026, 21:20 UTC

1 65505C 25198P   26257.88937500 -.00046631  00000+0 -13779-2 0  2575
2 65505  53.1579 107.8274 0001312  86.2045 100.3348 15.34409688    12

Track STARLINK-35072 in real time with AllMySat

Download on the App Store